{"data":{"norad_id":64870,"epoch":"2026-09-21T17:06:50.564736Z","epoch_age_seconds":66449,"freshness":"FRESH","line1":"1 64870U 25154B   26264.71308524  .00000989  00000+0  98716-4 0  9992","line2":"2 64870  97.6592 325.9689 0004084 303.9055  56.1776 14.93694229 63402","mean_motion":14.93694229,"eccentricity":0.0004084,"inclination_deg":97.6592,"raan_deg":325.9689,"arg_perigee_deg":303.9055,"mean_anomaly_deg":56.1776,"bstar":9.8716e-5,"rev_number":6340,"period_min":96.405273050031,"perigee_km":583.58436548754,"apogee_km":589.27302274649,"semimajor_km":6964.565694117,"source":"CELESTRAK","updated_at":"2026-09-22T09:00:30.011179Z"}}